Location: Hall+in+Tirol
(47.2830°N, 11.5170°E)
Time: 23:23:55
(UTC+01:00)

Amateur Radio Satellites - All Passes

Search period start: 29 January 2015 22:53
Search period end: 30 January 2015 22:53
Location: Hall+in+Tirol, 47.2830°N, 11.5170°E

Satellite Date Start Highest point End Downlink Frequencies (MHz)
Time Altitude Azimuth
ANTELSAT 29 Jan 22:55:08 22:59:37 67° 101° (ESE) 23:03:59 437.575/2403.000
AISAT 29 Jan 22:56:47 23:00:34 26° 266° (W) 23:04:19 437.250
ESTCUBE 1 29 Jan 22:59:40 23:04:03 52° 261° (W) 23:08:28 437.505/2401.250
UWE-3 29 Jan 23:00:28 23:02:30 12° 275° (W) 23:04:19 435.000/436.395/437.385
TIGRISAT 29 Jan 23:02:43 23:07:14 78° 104° (ESE) 23:11:36 435.000
BEESAT 29 Jan 23:07:01 23:08:15 11° 55° (NE) 23:09:43 436.000
NANOSAT C BR1 29 Jan 23:09:44 23:14:00 57° 100° (E) 23:18:14 145.865
ITUPSAT 1 29 Jan 23:10:40 23:12:17 12° 56° (NE) 23:14:05 437.325
SPROUT 29 Jan 23:15:42 23:19:56 58° 73° (ENE) 23:24:14 437.525
QB50P2 29 Jan 23:24:12 23:28:33 83° 103° (ESE) 23:32:51 145.880/145.840
VELOX 1 29 Jan 23:26:31 23:29:03 14° 272° (W) 23:31:26 145.980
CUBEBUG 1 29 Jan 23:32:24 23:36:07 26° 266° (W) 23:39:49 437.445
ISS 29 Jan 23:33:06 23:36:23 64° 341° (NNW) 23:39:40 145.825
QB50P1 29 Jan 23:33:26 23:37:47 81° 285° (WNW) 23:42:05 145.935-145.965
50 SAT 29 Jan 23:38:23 23:39:25 11° 274° (W) 23:40:12 437.505
BUGSAT 1 29 Jan 23:43:36 23:47:55 81° 285° (WNW) 23:52:13 437.445
POLYITAN 1 29 Jan 23:48:31 23:52:48 56° 288° (WNW) 23:57:00 437.675
TISAT 1 29 Jan 23:51:52 23:56:04 60° 259° (W) 00:00:19 437.305
UNISAT 6 29 Jan 23:56:11 00:00:12 32° 293° (WNW) 00:04:04 437.425
POPSAT HIP 1 30 Jan 00:08:36 00:12:36 36° 291° (WNW) 00:16:32 437.405
DUCHIFAT 1 30 Jan 00:11:06 00:15:03 35° 292° (WNW) 00:18:56 145.980
SWISSCUBE 30 Jan 00:24:59 00:29:37 55° 71° (ENE) 00:34:17 437.505
GONETS M04 30 Jan 00:26:15 00:33:42 34° 84° (E) 00:41:18
ANTELSAT 30 Jan 00:33:09 00:35:57 16° 299° (WNW) 00:38:34 437.575/2403.000
BEESAT 30 Jan 00:40:36 00:45:20 71° 73° (ENE) 00:50:07 436.000
TIGRISAT 30 Jan 00:41:00 00:43:25 14° 301° (WNW) 00:45:40 435.000
ITUPSAT 1 30 Jan 00:44:42 00:49:27 76° 73° (ENE) 00:54:15 437.325
NANOSAT C BR1 30 Jan 00:46:36 00:49:31 17° 298° (WNW) 00:52:17 145.865
STARS 30 Jan 00:50:44 00:53:12 15° 60° (ENE) 00:55:48 437.465
SPROUT 30 Jan 00:53:45 00:56:29 16° 271° (W) 00:59:04 437.525
KKS-1 30 Jan 00:56:39 01:00:11 24° 64° (ENE) 01:03:50 437.445
O/OREOS (USA 219) 30 Jan 00:56:43 01:00:45 29° 53° (NE) 01:04:49 437.305
QB50P2 30 Jan 01:01:52 01:03:54 13° 301° (WNW) 01:05:47 145.880/145.840
ISS 30 Jan 01:10:06 01:13:12 36° 360° (N) 01:16:19 145.825
QB50P1 30 Jan 01:11:51 01:13:01 11° 302° (WNW) 01:13:59 145.935-145.965
M-CUBED/EXP-1 PRIME 30 Jan 01:13:13 01:15:40 17° 59° (ENE) 01:18:05 437.505
BEESAT 2 30 Jan 01:21:20 01:22:38 11° 110° (ESE) 01:24:09 435.950
BUGSAT 1 30 Jan 01:21:39 01:22:46 11° 302° (WNW) 01:23:42 437.445
Oscar 19 30 Jan 01:24:37 01:29:30 42° 97° (E) 01:34:23 437.125/150
BEESAT 3 30 Jan 01:33:31 01:36:12 17° 113° (ESE) 01:39:02 437.485
ITAMSAT 1 30 Jan 01:42:01 01:46:05 23° 91° (E) 01:50:17 435.822/435.867
AUBIESAT-1 30 Jan 01:45:02 01:48:26 30° 64° (ENE) 01:51:40 437.475
SWISSCUBE 30 Jan 02:04:24 02:07:53 19° 270° (W) 02:11:15 437.505
BEESAT 30 Jan 02:20:59 02:23:48 15° 272° (W) 02:26:26 436.000
GONETS M04 30 Jan 02:21:28 02:30:09 61° 285° (WNW) 02:38:47
STARS 30 Jan 02:24:43 02:29:10 74° 257° (WSW) 02:33:40 437.465
ITUPSAT 1 30 Jan 02:25:26 02:28:01 14° 273° (W) 02:30:24 437.325
KKS-1 30 Jan 02:32:21 02:36:38 43° 262° (W) 02:40:57 437.445
HORYU 2 30 Jan 02:35:12 02:37:34 14° 88° (E) 02:40:07 437.375
O/OREOS (USA 219) 30 Jan 02:36:01 02:40:16 37° 253° (WSW) 02:44:30 437.305
DANDE 30 Jan 02:37:57 02:42:40 17° 78° (ENE) 02:47:54 436.750
MOZHAYETS 4 30 Jan 02:40:18 02:42:25 13° 59° (ENE) 02:44:44
Gurwin Techsat 1B 30 Jan 02:40:52 02:46:04 53° 99° (E) 02:51:17 435.225
M-CUBED/EXP-1 PRIME 30 Jan 02:46:34 02:50:27 49° 254° (WSW) 02:54:03 437.505
ISS 30 Jan 02:46:45 02:50:02 63° 20° (NNE) 02:53:19 145.825
AIST 2 30 Jan 02:54:29 02:58:28 41° 120° (ESE) 03:02:34 435.215
BEESAT 2 30 Jan 02:56:07 03:00:16 88° 302° (WNW) 03:04:29 435.950
CUSAT 1 30 Jan 03:02:17 03:08:54 28° 85° (E) 03:15:44 437.405
Oscar 19 30 Jan 03:04:17 03:08:44 30° 296° (WNW) 03:13:07 437.125/150
BEESAT 3 30 Jan 03:09:53 03:13:58 60° 311° (NW) 03:18:07 437.485
AUBIESAT-1 30 Jan 03:20:10 03:23:25 24° 259° (WSW) 03:26:26 437.475
ITAMSAT 1 30 Jan 03:20:51 03:25:58 53° 291° (WNW) 03:31:02 435.822/435.867
RS-15 30 Jan 03:23:11 03:30:24 22° 102° (ESE) 03:38:11 29.354- 29.394
JAS-2 30 Jan 03:32:17 03:34:52 13° 86° (E) 03:37:55 435.910
AO-7 30 Jan 03:38:10 03:45:28 34° 94° (E) 03:52:52 29.400- 29.500
PCSat 30 Jan 03:55:23 04:00:09 33° 113° (ESE) 04:05:02 145.827
HORYU 2 30 Jan 04:10:21 04:14:48 66° 287° (WNW) 04:19:11 437.375
MOZHAYETS 4 30 Jan 04:14:28 04:19:05 86° 258° (WSW) 04:23:41
DANDE 30 Jan 04:16:37 04:24:53 68° 96° (E) 04:33:25 436.750
Gurwin Techsat 1B 30 Jan 04:21:25 04:25:47 26° 298° (WNW) 04:30:03 435.225
PRISM 30 Jan 04:23:20 04:25:40 15° 61° (ENE) 04:28:08 437.425
ISS 30 Jan 04:23:27 04:26:23 28° 217° (SW) 04:29:15 145.825
GONETS M04 30 Jan 04:24:23 04:29:21 15° 311° (NW) 04:33:53
YUBILEINY 30 Jan 04:29:32 04:34:24 16° 49° (NE) 04:39:41 435.215
AIST 2 30 Jan 04:33:23 04:37:14 30° 320° (NW) 04:41:04 435.215
CUBESAT XI-V 30 Jan 04:33:37 04:36:15 15° 60° (ENE) 04:39:01 437.345
BEESAT 2 30 Jan 04:36:13 04:39:08 18° 328° (NNW) 04:41:59 435.950
CUSAT 1 30 Jan 04:42:57 04:51:21 79° 283° (WNW) 04:59:40 437.405
BEESAT 3 30 Jan 04:50:42 04:53:00 14° 332° (NNW) 04:55:13 437.485
STRAND 1 30 Jan 04:52:21 04:55:57 20° 60° (ENE) 04:59:42 437.568
JAS-2 30 Jan 05:15:12 05:20:49 84° 104° (ESE) 05:27:08 435.910
Cubesat XI-IV 30 Jan 05:29:01 05:32:40 19° 89° (E) 05:36:30 437.490
RS-15 30 Jan 05:30:17 05:41:09 80° 123° (ESE) 05:52:14 29.354- 29.394
AO-7 30 Jan 05:30:37 05:38:52 64° 295° (WNW) 05:47:00 29.400- 29.500
PCSat 30 Jan 05:38:15 05:43:29 46° 312° (NW) 05:48:43 145.827
CUTE-I 30 Jan 05:48:17 05:52:46 27° 93° (E) 05:57:20 437.470
MOZHAYETS 4 30 Jan 05:56:21 05:57:09 10° 276° (W) 05:57:39
PRISM 30 Jan 05:56:43 06:00:48 62° 259° (WSW) 06:04:54 437.425
DANDE 30 Jan 06:01:17 06:09:01 36° 297° (WNW) 06:16:39 436.750
CUBESAT XI-V 30 Jan 06:08:35 06:13:11 75° 258° (WSW) 06:17:50 437.345
AIST 2 30 Jan 06:16:56 06:17:14 10° 342° (NNW) 06:17:26 435.215
YUBILEINY 30 Jan 06:24:47 06:33:30 64° 75° (ENE) 06:42:15 435.215
CUSAT 1 30 Jan 06:29:15 06:35:44 23° 304° (NW) 06:41:47 437.405
STRAND 1 30 Jan 06:29:40 06:34:45 66° 259° (WSW) 06:39:51 437.568
JAS-2 30 Jan 07:01:43 07:05:30 18° 301° (WNW) 07:09:19 435.910
Cubesat XI-IV 30 Jan 07:08:00 07:13:22 68° 288° (WNW) 07:18:42 437.490
AO-7 30 Jan 07:24:46 07:30:15 19° 317° (NW) 07:35:27 29.400- 29.500
PCSat 30 Jan 07:25:25 07:28:22 14° 336° (NNW) 07:31:13 145.827
CUTE-I 30 Jan 07:27:57 07:33:08 48° 292° (WNW) 07:38:16 437.470
BRITE-PL 30 Jan 07:39:51 07:43:29 18° 85° (E) 07:47:14 437.365/2234.400
RS-15 30 Jan 07:44:23 07:54:42 43° 332° (NNW) 08:05:12 29.354- 29.394
SEEDS 30 Jan 08:09:16 08:11:23 14° 88° (E) 08:13:40 437.485
BEESAT 3 30 Jan 08:12:42 08:13:07 10° 20° (NNE) 08:13:39 437.485
YUBILEINY 30 Jan 08:22:19 08:29:52 33° 277° (W) 08:37:13 435.215
ANTELSAT 30 Jan 08:23:20 08:25:25 13° 58° (ENE) 08:27:39 437.575/2403.000
TIGRISAT 30 Jan 08:30:10 08:32:40 15° 60° (ENE) 08:35:19 435.000
COMPASS 1 30 Jan 08:34:01 08:37:09 21° 91° (E) 08:40:22 437.405
HO-68 30 Jan 08:35:29 08:42:06 40° 96° (E) 08:48:47 435.675
VERMONT LUNAR 30 Jan 08:42:10 08:44:10 15° 159° (SSE) 08:46:14 437.305
QB50P2 30 Jan 08:47:28 08:49:07 12° 59° (ENE) 08:50:57 145.880/145.840
CANX-2 30 Jan 08:49:55 08:54:00 45° 98° (E) 08:58:04 2200.000
Cubesat XI-IV 30 Jan 08:50:17 08:52:37 13° 306° (NW) 08:54:42 437.490
DELFI C3 30 Jan 08:52:20 08:53:29 11° 86° (E) 08:54:51 145.870
QB50P1 30 Jan 08:55:51 08:58:06 14° 60° (ENE) 09:00:31 145.935-145.965
AAUSAT CUBESAT 2 30 Jan 08:59:20 09:03:06 33° 96° (E) 09:06:52 437.432
CINEMA 3 30 Jan 08:59:28 09:03:21 24° 90° (E) 09:07:12 145.822/145.860
BUGSAT 1 30 Jan 09:04:04 09:05:56 13° 60° (ENE) 09:07:59 437.445
GOMX 1 30 Jan 09:08:38 09:14:07 68° 100° (E) 09:19:20 467.674
UWE-3 30 Jan 09:09:21 09:11:44 14° 86° (E) 09:14:15 435.000/436.395/437.385
POLYITAN 1 30 Jan 09:10:12 09:13:16 20° 63° (ENE) 09:16:29 437.675
CUTE 1.7 + AOD 2 30 Jan 09:13:53 09:18:08 75° 102° (ESE) 09:22:21 437.475
BRITE-PL 30 Jan 09:17:00 09:22:44 79° 285° (WNW) 09:28:14 437.365/2234.400
DOVE 4 30 Jan 09:17:26 09:22:39 60° 99° (E) 09:27:36 437.250
Oscar 11 30 Jan 09:18:15 09:21:55 27° 94° (E) 09:25:38 145.826/435.025
UNISAT 6 30 Jan 09:21:12 09:25:35 40° 69° (ENE) 09:29:59 437.425
POPSAT HIP 1 30 Jan 09:29:07 09:32:47 29° 67° (ENE) 09:36:32 437.405
DUCHIFAT 1 30 Jan 09:31:16 09:34:58 29° 67° (ENE) 09:38:44 145.980
BEESAT 2 30 Jan 09:35:30 09:39:01 25° 38° (NE) 09:42:33 435.950
AIST 2 30 Jan 09:35:34 09:38:19 17° 30° (NNE) 09:41:08 435.215
VELOX 1 30 Jan 09:38:16 09:38:43 10° 85° (E) 09:39:28 145.980
SEEDS 30 Jan 09:43:33 09:47:43 62° 287° (WNW) 09:51:51 437.485
PHONESAT 2.4 30 Jan 09:44:46 09:47:26 20° 164° (SSE) 09:50:08 2401.200-2431.200
BEESAT 3 30 Jan 09:48:43 09:52:32 33° 42° (NE) 09:56:20 437.485
UKube-1 30 Jan 09:53:53 09:57:53 35° 97° (E) 10:01:54 .
SO-50 30 Jan 09:54:38 09:58:34 29° 116° (ESE) 10:02:42 436.795
ANTELSAT 30 Jan 09:56:51 10:01:35 87° 76° (ENE) 10:06:19 437.575/2403.000
RS-15 30 Jan 10:01:05 10:10:40 32° 5° (N) 10:20:35 29.354- 29.394
TIGRISAT 30 Jan 10:04:08 10:08:52 83° 259° (WSW) 10:13:36 435.000
NANOSAT C BR1 30 Jan 10:05:25 10:09:39 65° 73° (ENE) 10:13:56 145.865
CUBEBUG 2 30 Jan 10:05:57 10:10:32 61° 100° (E) 10:14:56 437.445
HUMSAT D 30 Jan 10:07:18 10:10:48 25° 93° (E) 10:14:18 437.325/437.525
COMPASS 1 30 Jan 10:09:10 10:13:05 40° 290° (WNW) 10:16:58 437.405
ZACube-1 30 Jan 10:10:07 10:14:27 47° 98° (E) 10:18:38 437.345
DX 1 30 Jan 10:15:26 10:19:48 60° 101° (ESE) 10:24:10 434.975-435.025
VERMONT LUNAR 30 Jan 10:18:41 10:21:40 26° 175° (S) 10:24:38 437.305
QB50P2 30 Jan 10:20:09 10:24:27 88° 256° (WSW) 10:28:48 145.880/145.840
FUNcube-1 30 Jan 10:21:45 10:26:11 61° 100° (E) 10:30:28 145.935
HO-68 30 Jan 10:23:10 10:30:00 48° 296° (WNW) 10:36:45 435.675
DELFI C3 30 Jan 10:25:16 10:29:19 72° 285° (WNW) 10:33:20 145.870
CANX-2 30 Jan 10:26:33 10:29:42 20° 296° (WNW) 10:32:44 2200.000
QB50P1 30 Jan 10:29:14 10:33:30 72° 258° (WSW) 10:37:50 145.935-145.965
GONETS M04 30 Jan 10:31:48 10:37:46 21° 54° (NE) 10:44:04
AAUSAT CUBESAT 2 30 Jan 10:35:12 10:38:41 25° 293° (WNW) 10:42:04 437.432
CINEMA 3 30 Jan 10:36:09 10:40:50 45° 290° (WNW) 10:45:17 145.822/145.860
BUGSAT 1 30 Jan 10:36:48 10:40:55 76° 257° (WSW) 10:45:07 437.445
AISAT 30 Jan 10:43:49 10:48:13 48° 99° (E) 10:52:35 437.250
UWE-3 30 Jan 10:44:21 10:48:53 67° 286° (WNW) 10:53:14 435.000/436.395/437.385
POLYITAN 1 30 Jan 10:44:44 10:48:56 49° 261° (W) 10:53:10 437.675
GOMX 1 30 Jan 10:47:38 10:51:44 21° 299° (WNW) 10:55:35 467.674
ESTCUBE 1 30 Jan 10:49:36 10:53:23 26° 93° (E) 10:57:14 437.505/2401.250
CUTE 1.7 + AOD 2 30 Jan 10:51:26 10:53:34 13° 300° (WNW) 10:55:32 437.475
Oscar 11 30 Jan 10:54:17 10:58:11 33° 292° (WNW) 11:02:00 145.826/435.025
DOVE 4 30 Jan 10:55:57 10:59:59 22° 299° (WNW) 11:03:47 437.250
PCSat 30 Jan 10:56:56 11:00:12 16° 28° (NNE) 11:03:36 145.827
BRITE-PL 30 Jan 10:57:06 11:00:24 16° 304° (NW) 11:03:27 437.365/2234.400
UNISAT 6 30 Jan 10:58:32 11:02:31 26° 267° (W) 11:06:26 437.425
AIST 1 30 Jan 11:02:42 11:06:42 42° 93° (E) 11:10:46
POPSAT HIP 1 30 Jan 11:04:47 11:08:39 32° 265° (W) 11:12:31 437.405
DUCHIFAT 1 30 Jan 11:07:00 11:10:49 30° 265° (W) 11:14:37 145.980
Oscar 19 30 Jan 11:08:23 11:11:00 14° 56° (ENE) 11:13:49 437.125/150
50 SAT 30 Jan 11:11:01 11:15:07 88° 103° (ESE) 11:19:08 437.505
VELOX 1 30 Jan 11:11:34 11:16:07 88° 104° (ESE) 11:20:38 145.980
AIST 2 30 Jan 11:13:24 11:17:43 75° 51° (NE) 11:21:58 435.215
BEESAT 2 30 Jan 11:13:25 11:17:30 51° 238° (WSW) 11:21:30 435.950
CUBEBUG 1 30 Jan 11:17:27 11:21:43 45° 98° (E) 11:26:01 437.445
PHONESAT 2.4 30 Jan 11:22:18 11:25:27 28° 180° (S) 11:28:36 2401.200-2431.200
BEESAT 3 30 Jan 11:26:54 11:30:42 34° 241° (WSW) 11:34:24 437.485
UKube-1 30 Jan 11:30:14 11:33:58 27° 294° (WNW) 11:37:36 .
SO-50 30 Jan 11:34:32 11:38:59 45° 316° (NW) 11:43:36 436.795
TISAT 1 30 Jan 11:34:35 11:37:27 18° 90° (E) 11:40:27 437.305
ANTELSAT 30 Jan 11:37:08 11:39:07 12° 275° (W) 11:40:51 437.575/2403.000
HUMSAT D 30 Jan 11:42:48 11:46:42 34° 292° (WNW) 11:50:30 437.325/437.525
CUBEBUG 2 30 Jan 11:43:39 11:46:48 18° 299° (WNW) 11:49:47 437.445
NANOSAT C BR1 30 Jan 11:43:42 11:46:03 14° 272° (W) 11:48:14 145.865
TIGRISAT 30 Jan 11:45:31 11:46:28 10° 276° (W) 11:47:06 435.000
ZACube-1 30 Jan 11:47:09 11:50:32 21° 297° (WNW) 11:53:46 437.345
DX 1 30 Jan 11:52:43 11:55:40 17° 299° (WNW) 11:58:31 434.975-435.025
VERMONT LUNAR 30 Jan 11:56:27 11:59:14 22° 192° (SSW) 12:02:02 437.305
FUNcube-1 30 Jan 11:59:11 12:02:06 17° 299° (WNW) 12:04:51 145.935
HO-68 30 Jan 12:13:23 12:16:11 12° 317° (NW) 12:18:39 435.675
RS-15 30 Jan 12:15:21 12:26:14 53° 37° (NE) 12:37:38 29.354- 29.394
AISAT 30 Jan 12:21:05 12:24:35 22° 297° (WNW) 12:27:58 437.250
SWISSCUBE 30 Jan 12:24:44 12:25:56 11° 85° (E) 12:27:26 437.505
ESTCUBE 1 30 Jan 12:26:12 12:30:24 37° 291° (WNW) 12:34:34 437.505/2401.250
Gurwin Techsat 1B 30 Jan 12:27:31 12:31:03 19° 59° (ENE) 12:34:44 435.225
GONETS M04 30 Jan 12:27:36 12:36:21 81° 79° (E) 12:45:04
SPROUT 30 Jan 12:35:18 12:39:41 76° 102° (ESE) 12:44:02 437.525
BEESAT 30 Jan 12:39:15 12:41:47 15° 87° (E) 12:44:31 436.000
PCSat 30 Jan 12:39:32 12:44:54 56° 50° (NE) 12:50:14 145.827
AIST 1 30 Jan 12:41:26 12:44:39 20° 293° (WNW) 12:47:47
ITUPSAT 1 30 Jan 12:43:30 12:46:19 16° 88° (E) 12:49:18 437.325
Oscar 19 30 Jan 12:44:27 12:49:39 83° 76° (ENE) 12:54:54 437.125/150
50 SAT 30 Jan 12:48:26 12:49:39 11° 301° (WNW) 12:50:40 437.505
VELOX 1 30 Jan 12:49:56 12:52:06 13° 302° (WNW) 12:54:06 145.980
AO-7 30 Jan 12:52:06 12:57:04 18° 42° (NE) 13:02:20 29.400- 29.500
AIST 2 30 Jan 12:53:24 12:55:51 15° 249° (WSW) 12:58:05 435.215
CUBEBUG 1 30 Jan 12:54:23 12:57:53 22° 296° (WNW) 13:01:17 437.445
PHONESAT 2.4 30 Jan 13:00:47 13:03:27 19° 197° (SSW) 13:06:06 2401.200-2431.200
ITAMSAT 1 30 Jan 13:02:52 13:07:48 48° 69° (ENE) 13:12:48 435.822/435.867
TISAT 1 30 Jan 13:09:27 13:13:38 50° 289° (WNW) 13:17:47 437.305
DANDE 30 Jan 13:17:12 13:20:29 14° 45° (NE) 13:23:40 436.750
SO-50 30 Jan 13:18:07 13:20:47 14° 339° (NNW) 13:23:24 436.795
HORYU 2 30 Jan 13:36:28 13:39:50 22° 63° (ENE) 13:43:17 437.375
CUSAT 1 30 Jan 13:40:42 13:45:20 20° 54° (NE) 13:49:20 437.405
SWISSCUBE 30 Jan 13:59:50 14:04:39 86° 106° (ESE) 14:09:28 437.505
Gurwin Techsat 1B 30 Jan 14:05:11 14:10:30 76° 256° (WSW) 14:15:52 435.225
STARS 30 Jan 14:12:44 14:15:33 17° 89° (E) 14:18:30 437.465
SPROUT 30 Jan 14:12:54 14:15:16 14° 300° (WNW) 14:17:29 437.525
BEESAT 30 Jan 14:15:29 14:20:17 74° 286° (WNW) 14:25:03 436.000
ITUPSAT 1 30 Jan 14:20:01 14:24:48 69° 287° (WNW) 14:29:34 437.325
KKS-1 30 Jan 14:20:32 14:24:28 29° 95° (E) 14:28:24 437.445
PCSat 30 Jan 14:23:31 14:28:02 27° 250° (WSW) 14:32:27 145.827
GONETS M04 30 Jan 14:25:38 14:32:19 25° 280° (W) 14:38:42
Oscar 19 30 Jan 14:26:50 14:29:46 14° 274° (W) 14:32:28 437.125/150
RS-15 30 Jan 14:28:01 14:39:09 63° 242° (WSW) 14:50:41 29.354- 29.394
AO-7 30 Jan 14:40:12 14:48:21 60° 64° (ENE) 14:56:34 29.400- 29.500
ITAMSAT 1 30 Jan 14:43:15 14:47:35 26° 268° (W) 14:51:50 435.822/435.867
DANDE 30 Jan 14:59:02 15:06:01 64° 73° (ENE) 15:11:12 436.750
AUBIESAT-1 30 Jan 14:59:33 15:00:33 11° 95° (E) 15:01:44 437.475
SO-50 30 Jan 15:03:15 15:03:25 10° 3° (N) 15:03:37 436.795
HORYU 2 30 Jan 15:11:52 15:16:15 48° 261° (W) 15:20:37 437.375
O/OREOS (USA 219) 30 Jan 15:13:38 15:16:25 17° 101° (E) 15:19:21 437.305
CUSAT 1 30 Jan 15:23:02 15:29:31 73° 263° (W) 15:34:17 437.405
JAS-2 30 Jan 15:31:32 15:36:41 48° 69° (ENE) 15:41:40 435.910
CUTE-I 30 Jan 15:38:11 15:39:15 11° 52° (NE) 15:40:34 437.470
SWISSCUBE 30 Jan 15:39:17 15:41:56 15° 302° (WNW) 15:44:25 437.505
STARS 30 Jan 15:48:04 15:52:28 57° 288° (WNW) 15:56:48 437.465
Gurwin Techsat 1B 30 Jan 15:50:04 15:51:33 11° 277° (W) 15:52:41 435.225
BEESAT 30 Jan 15:55:42 15:57:23 12° 304° (NW) 15:58:51 436.000
KKS-1 30 Jan 15:57:05 16:01:10 33° 293° (WNW) 16:05:09 437.445
M-CUBED/EXP-1 PRIME 30 Jan 16:00:15 16:03:34 71° 107° (ESE) 16:06:58 437.505
ITUPSAT 1 30 Jan 16:00:37 16:01:55 11° 305° (NW) 16:02:58 437.325
MOZHAYETS 4 30 Jan 16:07:30 16:10:35 18° 89° (E) 16:13:49
AUBIESAT-1 30 Jan 16:32:39 16:35:53 49° 293° (WNW) 16:39:10 437.475
AO-7 30 Jan 16:33:59 16:41:37 37° 265° (W) 16:49:09 29.400- 29.500
SO-50 30 Jan 16:42:33 16:45:55 18° 27° (NNE) 16:49:23 436.795
RS-15 30 Jan 16:43:25 16:49:34 15° 262° (W) 16:54:56 29.354- 29.394
DANDE 30 Jan 16:43:36 16:48:36 22° 280° (W) 16:52:34 436.750
O/OREOS (USA 219) 30 Jan 16:50:57 16:55:24 60° 299° (WNW) 16:59:56 437.305
Cubesat XI-IV 30 Jan 16:53:48 16:58:45 41° 67° (ENE) 17:03:47 437.490
CUSAT 1 30 Jan 17:09:37 17:10:53 11° 287° (WNW) 17:11:46 437.405
CUTE-I 30 Jan 17:13:09 17:18:21 59° 71° (ENE) 17:23:38 437.470
JAS-2 30 Jan 17:17:47 17:22:10 24° 268° (W) 17:26:18 435.910
HO-68 30 Jan 17:26:29 17:27:55 11° 40° (NE) 17:29:40 435.675
PRISM 30 Jan 17:37:42 17:40:00 15° 89° (E) 17:42:27 437.425
YUBILEINY 30 Jan 17:39:01 17:42:35 14° 73° (ENE) 17:46:43 435.215
MOZHAYETS 4 30 Jan 17:43:45 17:48:14 54° 288° (WNW) 17:52:41
CUBESAT XI-V 30 Jan 18:02:46 18:06:25 23° 91° (E) 18:10:10 437.345
SO-50 30 Jan 18:22:29 18:27:24 67° 50° (NE) 18:32:18 436.795
Cubesat XI-IV 30 Jan 18:34:17 18:39:00 31° 266° (W) 18:43:42 437.490
O/OREOS (USA 219) 30 Jan 18:34:35 18:35:55 11° 321° (NW) 18:37:05 437.305
STRAND 1 30 Jan 18:37:11 18:41:49 33° 95° (E) 18:46:29 437.568
CUTE 1.7 + AOD 2 30 Jan 18:37:58 18:38:43 10° 58° (ENE) 18:39:40 437.475
GOMX 1 30 Jan 18:43:51 18:47:03 17° 58° (ENE) 18:50:31 467.674
DOVE 4 30 Jan 18:51:01 18:53:40 15° 57° (ENE) 18:56:33 437.250
BRITE-PL 30 Jan 18:53:19 18:57:34 26° 62° (ENE) 19:02:08 437.365/2234.400
CUTE-I 30 Jan 18:54:46 18:58:54 22° 270° (W) 19:02:54 437.470
SEEDS 30 Jan 19:04:50 19:07:27 17° 63° (ENE) 19:10:11 437.485
HO-68 30 Jan 19:07:22 19:13:56 42° 62° (ENE) 19:20:35 435.675
PRISM 30 Jan 19:11:51 19:15:57 58° 288° (WNW) 19:20:02 437.425
COMPASS 1 30 Jan 19:28:47 19:32:05 23° 66° (ENE) 19:35:28 437.405
YUBILEINY 30 Jan 19:29:17 19:37:48 66° 93° (E) 19:46:26 435.215
CUBEBUG 2 30 Jan 19:34:01 19:35:35 12° 57° (ENE) 19:37:22 437.445
CUBESAT XI-V 30 Jan 19:39:38 19:44:08 46° 289° (WNW) 19:48:37 437.345
DX 1 30 Jan 19:41:48 19:42:47 11° 57° (ENE) 19:43:59 434.975-435.025
DELFI C3 30 Jan 19:44:00 19:45:41 13° 61° (ENE) 19:47:32 145.870
CANX-2 30 Jan 19:45:54 19:50:03 50° 72° (ENE) 19:54:13 2200.000
FUNcube-1 30 Jan 19:48:18 19:49:14 11° 57° (ENE) 19:50:23 145.935
AAUSAT CUBESAT 2 30 Jan 19:53:31 19:57:20 35° 69° (ENE) 20:01:11 437.432
CINEMA 3 30 Jan 20:03:47 20:08:12 33° 67° (ENE) 20:12:45 145.822/145.860
SO-50 30 Jan 20:03:53 20:07:34 21° 247° (WSW) 20:11:06 436.795
UWE-3 30 Jan 20:09:19 20:12:40 20° 63° (ENE) 20:16:08 435.000/436.395/437.385
CUTE 1.7 + AOD 2 30 Jan 20:09:42 20:14:00 80° 76° (ENE) 20:18:18 437.475
Oscar 11 30 Jan 20:16:06 20:19:57 32° 68° (ENE) 20:23:51 145.826/435.025
STRAND 1 30 Jan 20:16:21 20:21:04 37° 294° (WNW) 20:25:45 437.568
GOMX 1 30 Jan 20:19:17 20:24:27 87° 252° (WSW) 20:29:57 467.674
DOVE 4 30 Jan 20:25:31 20:30:39 81° 73° (ENE) 20:36:00 437.250
50 SAT 30 Jan 20:30:14 20:30:51 10° 59° (ENE) 20:31:40 437.505
BRITE-PL 30 Jan 20:30:42 20:35:44 53° 262° (W) 20:41:10 437.365/2234.400
VELOX 1 30 Jan 20:38:10 20:40:43 16° 60° (ENE) 20:43:25 145.980
SEEDS 30 Jan 20:38:41 20:42:54 59° 260° (W) 20:47:07 437.485
UKube-1 30 Jan 20:51:52 20:56:00 45° 70° (ENE) 21:00:10 .
HO-68 30 Jan 20:54:50 21:01:40 46° 262° (W) 21:08:29 435.675
HUMSAT D 30 Jan 21:02:24 21:06:06 28° 67° (ENE) 21:09:52 437.325/437.525
COMPASS 1 30 Jan 21:03:41 21:07:39 38° 263° (W) 21:11:37 437.405
ISS 30 Jan 21:05:52 21:07:59 16° 137° (SE) 21:10:10 145.825
CUBEBUG 2 30 Jan 21:06:47 21:11:33 75° 75° (ENE) 21:16:22 437.445
AIST 1 30 Jan 21:07:21 21:10:03 16° 65° (ENE) 21:12:54
ZACube-1 30 Jan 21:08:50 21:13:21 57° 72° (ENE) 21:17:54 437.345
DX 1 30 Jan 21:14:00 21:18:22 79° 74° (ENE) 21:22:46 434.975-435.025
DELFI C3 30 Jan 21:16:20 21:20:25 76° 257° (WSW) 21:24:31 145.870
FUNcube-1 30 Jan 21:20:16 21:24:51 72° 74° (ENE) 21:29:28 145.935
CANX-2 30 Jan 21:23:19 21:26:20 18° 270° (W) 21:29:13 2200.000
YUBILEINY 30 Jan 21:27:41 21:35:23 33° 297° (WNW) 21:42:58 435.215
AAUSAT CUBESAT 2 30 Jan 21:29:38 21:33:07 24° 267° (W) 21:36:32 437.432
CINEMA 3 30 Jan 21:40:47 21:45:23 36° 265° (W) 21:50:01 145.822/145.860
UWE-3 30 Jan 21:44:13 21:48:52 57° 261° (W) 21:53:31 435.000/436.395/437.385
AISAT 30 Jan 21:44:51 21:49:15 64° 73° (ENE) 21:53:44 437.250
ANTELSAT 30 Jan 21:47:41 21:50:02 14° 87° (E) 21:52:32 437.575/2403.000
CUTE 1.7 + AOD 2 30 Jan 21:49:12 21:50:36 11° 274° (W) 21:51:46 437.475
Oscar 11 30 Jan 21:52:23 21:56:10 28° 266° (W) 21:59:56 145.826/435.025
ESTCUBE 1 30 Jan 21:52:24 21:56:27 35° 68° (ENE) 22:00:35 437.505/2401.250
TIGRISAT 30 Jan 21:54:20 21:57:05 16° 88° (E) 21:59:57 435.000
SPROUT 30 Jan 21:59:59 22:01:18 11° 58° (ENE) 22:02:49 437.525
GOMX 1 30 Jan 22:00:57 22:03:33 13° 278° (W) 22:05:55 467.674
50 SAT 30 Jan 22:01:11 22:05:20 83° 77° (ENE) 22:09:30 437.505
QB50P2 30 Jan 22:04:28 22:06:19 13° 87° (E) 22:08:22 145.880/145.840
DOVE 4 30 Jan 22:06:06 22:09:11 15° 275° (W) 22:12:07 437.250
VELOX 1 30 Jan 22:12:23 22:16:49 71° 257° (WSW) 22:21:18 145.980
QB50P1 30 Jan 22:12:46 22:15:18 15° 89° (E) 22:17:57 145.935-145.965
CUBEBUG 1 30 Jan 22:16:43 22:20:58 55° 72° (ENE) 22:25:17 437.445
BUGSAT 1 30 Jan 22:17:43 22:19:47 13° 88° (E) 22:22:02 437.445
POLYITAN 1 30 Jan 22:27:53 22:31:15 22° 92° (E) 22:34:41 437.675
UKube-1 30 Jan 22:29:09 22:32:26 20° 268° (W) 22:35:37 .
TISAT 1 30 Jan 22:30:16 22:33:26 21° 64° (ENE) 22:36:43 437.305
HUMSAT D 30 Jan 22:37:53 22:41:51 33° 265° (W) 22:45:47 437.325/437.525
ISS 30 Jan 22:40:48 22:44:05 87° 154° (SSE) 22:47:24 145.825
AIST 1 30 Jan 22:43:53 22:48:10 56° 265° (W) 22:52:27
CUBEBUG 2 30 Jan 22:46:07 22:48:53 15° 274° (W) 22:51:27 437.445
ZACube-1 30 Jan 22:46:53 22:50:07 18° 271° (W) 22:53:15 437.345
